Showing default

METEOSAT 5 (MOP 2), 21140

Orbit data source: Space-Track

METEOSAT 5 (MOP 2), 21140 is a payload satellite owned by EUMETSAT (ESA) in GEO that was launched on Sat, 02 Mar 1991 UTC via an ARIANE 44LP launch vehicle from the French Guiana (FRGUI). Payload-class satellites include a variety of spacecraft equipped with specific instruments for various scientific and technological missions. These include communications satellites like Starlink; space stations such as the ISS; scientific satellites like the Hubble; Earth observation satellites from companies like Planet Labs, Umbra, and HawkEye 360; GPS; miniature CubeSats for education and research; and military/defense satellites.

Not visible in the next 10 days
Identifier
21140, 1991-015B
Orbit
GEO
Last TLE update
7 hours ago
Origin
Manufacturer
Ae/Cannes
Mission
Non-operational Civil Weather
Bus & Motor
METEOSAT, AOCS
Mass
343 kg wet, 284 kg dry
Launch date (UTC)
1991-03-02 (34 years ago)
Launch vehicle
ARIANE 44LP
Launch site
French Guiana (FRGUI)
Object type
Payload
Rocket body
Debris
Shape & HBR
Cyl + Cyl + 1 Ant, 3.415 m
Radar Cross Section
4.680 m², Large (>1 m²)

Expand to show TLE details & history

TLE from 7 hours ago
0 METEOSAT 5 (MOP 2)
1 21140U 91015B   25130.88101311 -.00000196  00000-0  00000-0 0  9995
2 21140  14.7862 352.8871 0009022 253.4205 299.4750  0.98453089126243
Epoch: 2025-05-10T21:08Z
Definitive object data (Epoch: 2025-05-10T21:08:39.532Z)
Latitude
-3.25993°
Longitude
-0.78781°
Altitude
36,285.187 km
Speed
3.057 km/s
True Right ascension
12h 21m 10s
True Declination
-3° 15' 24"
Sunlit
Object was in daylight at TLE epoch
Visualization TLE readout
Latitude
-12.48352°
Longitude
109.8334°
Altitude
36,280.992 km
Speed
3.058 km/s
Apparent Right ascension
20h 09m 01s
Apparent Declination
-17° 08' 10"
Sunlit
Object is in daylight
Visualization observer readout
Local Sidereal Time
12:48:36
Azimuth
90.973° ESE
Elevation
-26.166°
Doppler factor
1
Orbital elements
Apogee altitude
36,343.74 km
Perigee altitude
36,266.722 km
Semi-major axis
42,683.368 km
Eccentricity
0.0009022
Inclination
14.7862°
RAAN
352.8871°
Arg. of periapsis
253.4205°
True anomaly
299.38495°
Mean anomaly
299.475°
Eccentric anomaly
299.42998°
Mean motion
0.24612 °/min
BSTAR
Unknown
Orbital period
1462.67 mins
Loading historical data...
21140 neighbors
Loading maneuver chart data...
Loading SW <> Apogee altitude chart data...

METEOSAT 5 (MOP 2) Visibility forecast

Observer location: undefined°, undefined°

METEOSAT 5 (MOP 2) is not visible in the next 10 days
Span
Click to sort rows by Start time (UTC) header in descending order
Start Az.
Max El. time (UTC)
Max El. Az.
Max El.
End time (UTC)
End Az.
|